Content
SEND FEEDBACK

Daily
Averages
Monthly
Summary
Thailand

NAM PHONG, THAILAND


Home > Asia > Thailand
Elevation: 750 feet     Latitude: 16 39N     Longitude: 102 58E

WEATHER
 
SELECT A DAY
Number of Records: 65,541;   Date Range: 12/16/03 - 7/26/14
 
SHARE

PRINT THIS DATA

[ ← Previous Day ]
WEATHER ALMANAC - FEBRUARY 13, 2013
[ Next Day → ]
[ °C ]   °F
Weather ElementAverageHighLow
Temperature79.2 °F89.6 °F (4:00 pm)66.2 °F (6:00 am)
Dewpoint61.9 °F64 °F (7:00 pm)58 °F (1:00 pm)
Humidity56.1 %83 % (6:00 am)27 % (1:00 pm)
Barometer29.92 in30.02 in (9:00 am)29.84 in (5:00 pm)
Wind Speed5.4 mph9.2 mph (10:00 am)
Weather ElementAverage
Visibility5.9 mi
Wind DirectionESE (107 °)

Weather ElementTotal
Precipitation---
Cooling Degree Days12.9 (Base 65)
Growing Degree Days27.9 (Base 50)
Averaged from 20 records on February 13, 2013
WEATHER CONDITIONS BREAKOUT
WIND DIRECTION BREAKOUT
WEATHER BY HOUR - FEBRUARY 13, 2013
[ °C ]   °F
Local TimeTemperatureDewpointHumidityBarometerVisibilityWind DirectionWind SpeedGust SpeedPrecipitationEventsConditions
4:00 AM69.8 °F60.8 °F73 %29.92 inENE (70°)6.9 mphClear
5:00 AM68.0 °F60.8 °F78 %29.92 inNE (40°)5.8 mphClear
6:00 AM66.2 °F60.8 °F83 %29.96 inNorth (360°)3.5 mphClear
7:00 AM67.0 °F60.0 °F72 %29.97 in6.0 miNorth4.6 mphClear
7:00 AM66.2 °F60.8 °F83 %29.98 inNorth (360°)5.8 mphClear
8:00 AM69.8 °F62.6 °F78 %30.01 inNorth (350°)5.8 mphClear
9:00 AM75.2 °F62.6 °F65 %30.02 inENE (60°)6.9 mphClear
10:00 AM78.8 °F62.6 °F57 %30.02 inENE (60°)9.2 mphClear
11:00 AM80.6 °F62.6 °F54 %30.00 inEast (80°)9.2 mphClear
12:00 PM84.2 °F62.6 °F48 %29.97 inEast (80°)6.9 mphClear
1:00 PM86.0 °F62.6 °F45 %29.93 inVariable4.6 mphClear
1:00 PM87.0 °F58.0 °F27 %29.88 in6.0 miNE (50°)5.8 mphClear
2:00 PM87.8 °F62.6 °F43 %29.89 in6.2 miVariable4.6 mphPartly Cloudy
3:00 PM87.8 °F62.6 °F43 %29.87 in6.2 miEast (80°)6.9 mphPartly Cloudy
4:00 PM89.6 °F62.6 °F40 %29.85 inNorth (360°)4.6 mphClear
5:00 PM87.8 °F60.8 °F40 %29.84 inNE (50°)4.6 mphClear
6:00 PM86.0 °F62.6 °F45 %29.85 in5.6 miEast (100°)3.5 mph
7:00 PM84.0 °F64.0 °F40 %29.84 in6.0 miNorth (10°)2.3 mphHaze
7:00 PM82.4 °F62.6 °F51 %29.86 in5.6 miNorth (10°)2.3 mph
8:00 PM78.8 °F62.6 °F57 %29.88 in5.6 miNNE (20°)3.5 mph
Hourly data recorded from VTUK, located miles away from Nam Phong, Thailand







STORIES FROM OUR PARTNERS